Vertical_Velocity
-2 0 0 -0 -0 0 -1 -3 -3 -1 -2 -2 1 -1 -1 -2 -2 0 0 -2 1 0 1 -0 -1 -0 -1 -1 -1 -0 -1 1 1 0 -0 -1 -0 -1 -4 2 5 1 -1
-3 -3 -0 0 -0 2 3 2 2 -1 -1 -1 -1 -2 0 -2 -1 -1 0 -1 -2 -1 -1 -0 -0 -1 -0 -0 -0 0 -0 0 1 0 -1 -1 1 -2 -1 -3 2 -3 0
1 0 -4 -1 -1 -2 -2 -1 -1 -0 -1 1 1 -1 2 2 0 -0 1 -2 -0 -0 0 1 1 -1 -2 -1 -1 -0 0 -1 0 3 0 -0 1 -1 2 1 3 -1 3
0 -1 1 -1 -0 -1 1 -1 0 1 -0 1 -1 0 1 -0 1 -0 -1 0 0 -0 -0 3 0 2 -1 -0 1 2 -1 -1 2 1 1 1 4 2 1 1 5 -2 2
-1 1 1 -1 -2 0 -1 -2 -1 2 1 0 1 0 1 1 -0 0 -1 -1 -2 -1 2 4 2 1 1 -0 -1 0 4 1 2 3 0 2 2 2 1 -0 -1 2 1
-1 -0 -1 1 0 0 -2 4 2 1 -1 -2 -0 -2 1 1 2 1 1 -1 1 1 2 -0 0 -1 -1 -0 1 1 -0 -1 -1 1 -0 -0 0 -1 -0 0 2 -0 4
0 -0 -1 5 -2 -1 -2 -0 3 3 -1 1 -1 1 -1 -2 4 -1 -0 -1 -1 -0 -1 -0 1 1 -1 2 2 2 0 0 -1 1 -3 0 0 -2 -1 -0 -1 0 -1
1 -4 1 3 6 7 -1 -1 2 3 6 5 4 3 3 3 -1 1 -1 -2 -2 -1 0 2 2 -0 -1 -2 1 -2 -0 -1 -1 2 2 1 -1 0 0 1 1 0 -1
8 4 1 4 6 2 6 4 6 -1 2 -2 2 3 1 2 -0 -1 -3 1 1 -1 1 -1 -2 2 0 -3 -3 2 0 -1 -1 -2 -1 1 -0 -0 -1 1 0 3 2
-0 -1 0 -0 1 4 3 2 -1 2 0 -1 5 1 -0 3 4 1 -1 -0 -1 1 2 -0 -0 2 1 -1 -1 -1 -0 1 -1 -0 -1 -1 -0 -0 0 0 -0 1 0
-0 0 1 1 -2 -1 0 1 1 2 1 1 3 6 1 5 -0 2 -1 -1 -1 -2 1 -0 1 1 -1 0 -1 1 1 0 -0 1 0 1 1 -0 -0 -0 -0 0 0
1 2 1 0 0 -1 0 -0 -0 0 0 1 3 2 1 3 2 1 1 -1 0 -2 -4 0 3 -2 -4 0 -1 0 -1 -1 1 1 0 -1 1 0 0 -0 -0 -1 -0
-0 -2 1 1 3 8 5 -1 3 -2 2 -0 -1 0 0 -3 -2 1 2 0 -1 -1 -2 9 6 3 -1 2 -3 -4 -3 -4 2 -0 1 3 0 -1 -1 2 2 0 0
2 -4 -2 0 -1 -1 0 4 2 2 1 -1 1 -0 -0 0 -2 -0 2 1 2 -1 -2 4 3 1 1 -1 3 0 2 3 -3 0 6 1 3 -0 3 3 2 -0 3
-1 -0 -2 -2 -2 -1 -0 -0 -2 -0 6 2 -1 -3 -0 -2 1 2 0 -1 -0 3 4 6 8 2 3 0 -2 1 2 6 2 4 4 -2 -6 -5 -7 -0 4 -0 -2
0 0 -0 -1 -2 0 0 -3 0 0 1 0 -0 24 19 2 7 4 -0 2 6 8 6 3 12 5 1 -1 -1 -1 0 4 4 -0 -3 -9 -3 0 3 0 -1 0 1
-1 -1 -1 0 -3 -0 -0 -0 -7 -3 -0 -1 -3 -4 -1 10 17 7 8 7 7 3 0 -2 -4 0 -3 -4 -2 -0 1 -2 -4 -1 1 1 2 -2 -0 1 -2 2 -3
-1 0 2 1 0 -1 -1 -2 -2 10 11 3 2 2 4 6 1 -2 0 3 -5 1 -0 2 1 -1 -1 -3 -1 -2 -3 -1 -0 -1 -0 1 1 1 -2 -1 -1 -4 -1
1 -0 1 1 2 3 -1 2 8 9 10 7 6 6 2 0 -4 -1 -1 3 1 -3 0 -2 -1 -1 -1 -1 -2 -1 -1 -1 0 -1 -1 -1 -3 -2 -2 1 -3 2 -1
-1 -1 -2 -0 -1 3 5 0 1 11 -1 2 1 -1 1 -1 -4 -1 -0 -1 -1 0 1 -1 -3 -2 -1 -2 -0 0 -0 1 -2 -1 -0 -2 -1 -0 -1 -4 -3 -0 3
0 0 0 -1 7 3 1 2 3 1 -1 -0 6 4 3 -1 0 -2 -1 1 0 -1 -2 -1 -3 -0 -0 0 -1 -0 0 -1 -1 -1 -1 -1 0 2 -1 -2 -3 -1 -3
1 -1 0 2 -1 0 0 0 1 3 4 -5 -4 -5 -5 -5 -6 0 2 1 -0 -2 1 0 -3 -1 2 -0 -4 -2 1 -1 -1 -1 -0 -0 2 -5 -1 -0 -6 0 -6
0 0 1 1 2 1 0 3 1 -1 -1 2 2 -1 -2 -4 -4 3 2 2 0 1 -3 -1 -1 -0 3 -0 2 1 1 1 -2 -3 -6 2 -2 -1 -6 -4 -2 -3 0
-1 -0 0 -1 1 -2 -3 -4 -3 -2 -2 -1 2 1 1 1 -1 -1 0 1 -1 -1 -2 -0 0 3 4 -1 2 2 -2 -3 -4 -2 -1 -5 -3 -0 -4 -3 -2 -5 -1
0 -1 -2 1 -1 -2 -0 -2 -1 -0 -1 -1 -1 -0 -0 -1 -2 -2 -2 1 -1 3 -2 0 -1 -2 -1 2 0 10 -0 1 -1 -2 -3 -2 -1 -2 -2 2 1 1 5
0 -2 -1 -0 -0 1 1 2 3 2 1 1 1 1 1 1 1 2 2 1 -1 -3 -0 2 -1 -1 1 2 -2 -0 -1 -1 -1 -0 0 0 -1 -1 -5 -2 -0 -0 -7
Height
5891 5892 5894 5895 5898 5901 5905 5908 5909 5911 5912 5915 5916 5917 5919 5920 5921 5923 5924 5925 5926 5927 5927 5928 5928 5928 5928 5928 5928 5928 5928 5928 5928 5928 5927 5926 5925 5923 5922 5921 5919 5919 5916
5889 5890 5891 5894 5896 5899 5901 5904 5907 5909 5910 5912 5913 5915 5917 5918 5920 5922 5923 5924 5925 5926 5927 5927 5927 5926 5927 5926 5926 5926 5926 5926 5925 5924 5923 5921 5920 5920 5919 5917 5916 5914 5914
5885 5887 5889 5891 5894 5895 5897 5899 5903 5906 5908 5910 5912 5913 5915 5917 5919 5920 5920 5922 5923 5923 5924 5925 5925 5925 5924 5925 5924 5923 5922 5922 5922 5921 5919 5918 5918 5916 5914 5913 5912 5910 5910
5880 5883 5886 5889 5890 5892 5894 5897 5899 5902 5905 5907 5909 5910 5912 5913 5914 5915 5916 5918 5919 5920 5921 5922 5921 5922 5922 5922 5921 5920 5919 5918 5918 5916 5915 5914 5913 5912 5910 5909 5907 5905 5905
5874 5878 5882 5883 5886 5888 5890 5893 5896 5898 5900 5902 5905 5907 5908 5909 5909 5910 5912 5914 5915 5916 5917 5918 5918 5918 5918 5918 5917 5916 5915 5914 5913 5912 5911 5909 5907 5906 5904 5902 5901 5899 5897
5867 5870 5874 5878 5880 5883 5885 5888 5891 5893 5895 5897 5898 5901 5903 5905 5906 5907 5907 5908 5909 5911 5912 5912 5913 5913 5914 5913 5913 5912 5911 5910 5908 5907 5905 5903 5902 5900 5899 5896 5894 5891 5891
5858 5863 5867 5871 5874 5877 5879 5882 5885 5887 5889 5892 5894 5895 5897 5899 5902 5901 5901 5902 5904 5905 5906 5907 5907 5908 5907 5907 5906 5906 5905 5904 5902 5902 5898 5897 5896 5893 5892 5890 5886 5885 5882
5850 5854 5858 5863 5867 5870 5872 5875 5878 5881 5883 5885 5886 5888 5890 5892 5894 5894 5895 5897 5897 5898 5899 5900 5900 5901 5899 5900 5900 5899 5898 5896 5894 5894 5892 5890 5887 5885 5882 5881 5879 5876 5873
5840 5845 5849 5853 5857 5861 5864 5867 5869 5871 5875 5877 5879 5880 5883 5886 5886 5888 5888 5889 5890 5891 5892 5893 5893 5894 5892 5891 5890 5892 5889 5887 5886 5885 5884 5881 5878 5876 5873 5871 5869 5867 5864
5834 5837 5840 5843 5847 5852 5854 5857 5860 5862 5865 5868 5871 5873 5874 5877 5877 5879 5880 5881 5883 5883 5884 5884 5884 5884 5883 5883 5882 5881 5880 5879 5878 5876 5875 5873 5869 5866 5864 5862 5859 5857 5855
5827 5827 5830 5832 5836 5840 5843 5847 5849 5852 5855 5859 5861 5864 5866 5868 5869 5870 5870 5872 5873 5873 5875 5875 5874 5874 5873 5872 5871 5871 5870 5869 5868 5866 5864 5862 5860 5857 5855 5853 5851 5849 5847
5822 5821 5822 5823 5825 5827 5831 5835 5838 5841 5844 5848 5851 5853 5854 5857 5859 5861 5861 5861 5862 5862 5861 5860 5860 5861 5860 5860 5860 5859 5858 5858 5858 5856 5854 5852 5849 5847 5846 5844 5842 5840 5837
5815 5815 5816 5817 5818 5819 5821 5823 5826 5829 5832 5836 5839 5842 5844 5846 5848 5850 5851 5851 5851 5851 5849 5848 5849 5848 5847 5846 5846 5844 5844 5845 5845 5843 5841 5839 5835 5836 5836 5835 5833 5830 5828
5808 5808 5809 5810 5810 5811 5812 5813 5815 5816 5820 5824 5827 5830 5832 5834 5836 5837 5839 5840 5841 5840 5837 5837 5837 5836 5836 5835 5834 5832 5831 5830 5830 5830 5828 5824 5822 5824 5825 5824 5823 5821 5819
5801 5801 5801 5802 5803 5804 5805 5806 5806 5807 5809 5811 5815 5817 5819 5819 5822 5824 5825 5826 5827 5827 5826 5826 5825 5824 5824 5824 5822 5820 5819 5818 5816 5815 5814 5812 5813 5812 5813 5813 5811 5810 5807
5793 5793 5794 5794 5795 5798 5798 5799 5799 5800 5800 5803 5807 5806 5806 5808 5811 5813 5812 5813 5814 5814 5813 5813 5813 5813 5812 5812 5810 5809 5807 5807 5806 5805 5806 5806 5805 5806 5806 5804 5802 5800 5797
5783 5785 5785 5786 5787 5790 5791 5791 5792 5792 5793 5793 5794 5796 5799 5801 5798 5800 5801 5801 5800 5800 5801 5802 5803 5803 5803 5802 5801 5801 5802 5800 5799 5799 5799 5800 5799 5798 5797 5795 5792 5790 5787
5772 5773 5776 5778 5779 5780 5783 5784 5786 5786 5785 5784 5785 5787 5788 5788 5790 5788 5789 5790 5793 5794 5797 5797 5797 5798 5799 5798 5796 5796 5795 5797 5796 5794 5792 5791 5790 5789 5788 5786 5783 5781 5777
5759 5761 5765 5768 5770 5772 5775 5778 5778 5778 5779 5778 5778 5780 5781 5782 5782 5783 5786 5789 5791 5791 5792 5793 5792 5791 5791 5791 5792 5791 5790 5790 5789 5787 5785 5783 5782 5780 5779 5777 5774 5771 5767
5750 5752 5756 5759 5761 5763 5767 5767 5768 5769 5771 5772 5773 5774 5776 5777 5778 5780 5783 5783 5784 5785 5786 5787 5787 5786 5786 5786 5785 5784 5783 5782 5781 5779 5778 5777 5775 5773 5770 5768 5765 5761 5758
5744 5746 5748 5750 5752 5754 5756 5759 5760 5761 5764 5766 5767 5770 5770 5772 5773 5776 5777 5777 5778 5779 5781 5782 5780 5780 5780 5779 5777 5776 5775 5775 5773 5772 5771 5769 5767 5765 5762 5759 5756 5752 5748
5737 5739 5740 5742 5743 5746 5748 5751 5753 5754 5756 5759 5760 5761 5763 5766 5768 5768 5769 5770 5771 5773 5774 5773 5773 5772 5771 5770 5770 5769 5769 5767 5766 5765 5765 5762 5759 5756 5753 5750 5746 5742 5737
5732 5733 5735 5736 5737 5739 5741 5743 5745 5747 5748 5750 5751 5753 5755 5758 5758 5758 5759 5763 5762 5763 5765 5764 5764 5764 5764 5763 5763 5762 5762 5761 5760 5759 5756 5753 5751 5747 5744 5740 5736 5731 5726
5730 5730 5731 5732 5734 5735 5736 5737 5738 5739 5741 5742 5744 5744 5745 5747 5749 5751 5753 5753 5754 5756 5756 5756 5756 5756 5756 5756 5756 5755 5755 5754 5753 5750 5747 5745 5741 5738 5734 5730 5725 5720 5715
5727 5727 5728 5729 5730 5731 5732 5733 5733 5734 5735 5736 5738 5739 5741 5742 5743 5743 5744 5745 5746 5747 5748 5749 5749 5750 5749 5748 5748 5749 5748 5747 5744 5741 5738 5734 5731 5727 5723 5720 5715 5710 5706
5724 5725 5725 5726 5727 5728 5729 5729 5730 5730 5730 5731 5732 5734 5735 5736 5737 5737 5738 5739 5740 5741 5741 5742 5742 5742 5742 5742 5741 5741 5740 5738 5735 5732 5729 5725 5722 5718 5714 5709 5704 5699 5694